カタログに戻る

DELTA 1 DEB

運用中LEO
NORAD 7054·DEBRIS·🇺🇸 United States

打ち上げ Nov 6, 1973 から Vandenberg Space Force Base

Loading…

次のパス (今後24時間)

TLE

最新Source: Space-Track

元期: Sep 14, 2026, 14:45 UTC

1 07054U 73086AW  26257.61502578  .00000408  00000-0  11354-2 0  9994
2 07054 101.5082 303.9400 0313572  63.8864  98.9161 13.03836876512108

AllMySatでDELTA 1 DEBをリアルタイム追跡

Download on the App Store